KD4TJG Weather Reports


Display with metric or nautical units.
time (UTC)temp
F
wind
direction
speed
MPH
gust
MPH
rain 1hr
in
rain 24hr
in
rain mn
in
humidity
%
barometer
mb
20230129191025 47 160 1.0 4.0 0.01 0.03 0.03 73 1022.9
20230129190522 48 171 2.0 4.0 0.01 0.03 0.03 74 1022.9
20230129190212 48 176 0.0 3.0 0.00 0.03 0.03 73 1024.8
20230129190040 48 159 1.0 4.0 0.01 0.03 0.03 74 1023.1
20230129185620 47 0 0.0 4.0 0.01 0.03 0.03 74 1023.5
20230129185225 48 288 0.0 7.0 0.00 0.03 0.03 70 1025.2
20230129185019 48 241 1.0 4.0 0.01 0.03 0.03 71 1023.5
20230129184542 47 0 0.0 8.0 0.01 0.03 0.03 69 1023.6
20230129184153 48 221 3.0 7.0 0.00 0.03 0.03 69 1025.3
20230129184022 48 251 3.0 8.0 0.01 0.03 0.03 68 1023.5
20230129183522 48 193 4.0 8.0 0.00 0.02 0.02 68 1023.6
20230129183213 48 188 2.0 6.0 0.00 0.02 0.02 70 1025.3
20230129183040 47 214 2.0 8.0 0.00 0.02 0.02 69 1023.7
20230129182524 47 266 2.0 10.0 0.00 0.02 0.02 70 1023.6
20230129182025 47 202 4.0 10.0 0.00 0.02 0.02 70 1023.7
20230129181535 47 154 4.0 10.0 0.00 0.02 0.02 71 1023.8
20230129181111 47 207 4.0 9.0 0.00 0.02 0.02 73 1025.4
20230129181021 47 167 4.0 10.0 0.00 0.02 0.02 73 1023.8
20230129180520 47 162 3.0 8.0 0.00 0.02 0.02 73 1024.0
20230129180129 47 155 3.0 7.0 0.00 0.02 0.02 73 1025.7
20230129180030 47 189 4.0 8.0 0.00 0.02 0.02 72 1024.2
20230129175522 47 164 3.0 7.0 0.00 0.02 0.02 71 1024.3
20230129175122 47 178 3.0 6.0 0.00 0.02 0.02 71 1026.0
20230129175021 47 191 4.0 7.0 0.00 0.02 0.02 71 1024.4
20230129174529 47 206 3.0 7.0 0.00 0.02 0.02 70 1024.5
20230129174140 47 232 3.0 7.0 0.00 0.02 0.02 70 1026.2
20230129174025 47 188 2.0 8.0 0.00 0.02 0.02 70 1024.6
20230129173522 47 183 3.0 8.0 0.00 0.02 0.02 70 1024.8
20230129173154 47 199 2.0 7.0 0.00 0.02 0.02 71 1026.4
20230129173023 47 216 3.0 8.0 0.00 0.02 0.02 70 1024.9
20230129172524 46 151 2.0 8.0 0.00 0.02 0.02 69 1024.9
20230129172120 47 202 3.0 7.0 0.00 0.02 0.02 69 1026.7
20230129172022 46 190 4.0 7.0 0.00 0.02 0.02 69 1025.0
20230129171533 46 151 3.0 7.0 0.00 0.02 0.02 69 1025.1
20230129171115 47 183 2.0 7.0 0.00 0.02 0.02 70 1026.7
20230129171021 46 176 2.0 8.0 0.00 0.02 0.02 70 1025.1
20230129170522 46 193 3.0 8.0 0.00 0.02 0.02 69 1025.1
20230129170032 46 190 4.0 8.0 0.00 0.02 0.02 71 1025.2
20230129165523 46 178 3.0 6.0 0.00 0.02 0.02 71 1025.2
20230129165022 46 172 2.0 9.0 0.00 0.02 0.02 72 1025.2
20230129165011 46 182 2.0 7.0 0.00 0.02 0.02 72 1026.8
20230129164523 45 147 3.0 9.0 0.00 0.02 0.02 72 1025.3
20230129164019 45 174 2.0 7.0 0.00 0.02 0.02 72 1025.5
20230129164012 45 187 3.0 6.0 0.00 0.02 0.02 73 1027.1
20230129163601 45 171 3.0 7.0 0.00 0.02 0.02 73 1025.6
20230129163021 44 141 2.0 6.0 0.00 0.02 0.02 74 1025.7
20230129162940 45 151 2.0 6.0 0.00 0.02 0.02 75 1027.2
20230129162525 44 181 2.0 4.0 0.00 0.02 0.02 75 1025.9
20230129162021 44 139 2.0 3.0 0.00 0.02 0.02 75 1026.0
20230129161918 45 182 1.0 4.0 0.00 0.02 0.02 76 1027.5
20230129161521 44 218 1.0 4.0 0.00 0.02 0.02 76 1026.1
20230129161020 44 190 2.0 4.0 0.00 0.02 0.02 76 1026.1
20230129160932 45 218 1.0 4.0 0.00 0.02 0.02 76 1027.8
20230129160521 44 183 2.0 5.0 0.00 0.02 0.02 76 1026.3
20230129160028 44 195 2.0 5.0 0.00 0.02 0.02 77 1026.4
20230129155942 44 215 1.0 6.0 0.00 0.02 0.02 78 1027.9
20230129155520 44 0 2.0 7.0 0.00 0.02 0.02 77 1026.2
20230129155020 43 201 2.0 7.0 0.00 0.02 0.02 78 1026.4
20230129154942 44 213 2.0 6.0 0.00 0.02 0.02 78 1028.1
20230129154610 43 196 3.0 7.0 0.00 0.02 0.02 79 1026.5
20230129154019 43 155 2.0 6.0 0.00 0.02 0.02 79 1026.7
20230129153523 43 198 2.0 6.0 0.00 0.02 0.02 80 1026.6
20230129153025 43 176 1.0 3.0 0.00 0.02 0.02 81 1026.6
20230129152523 43 162 1.0 3.0 0.01 0.02 0.02 82 1026.6
20230129152022 43 199 1.0 3.0 0.01 0.02 0.02 82 1026.5
20230129151641 43 172 1.0 2.0 0.00 0.02 0.02 83 1028.0
20230129151530 42 132 0.0 3.0 0.01 0.02 0.02 83 1026.4
20230129151023 42 182 2.0 3.0 0.01 0.02 0.02 84 1026.3
20230129150631 42 151 0.0 1.0 0.00 0.02 0.02 84 1028.1
20230129150523 42 141 1.0 2.0 0.01 0.02 0.02 84 1026.4
20230129150028 41 233 0.0 2.0 0.01 0.02 0.02 84 1026.6
20230129145614 42 357 0.0 0.0 0.00 0.02 0.02 86 1028.1
20230129145522 41 0 0.0 1.0 0.01 0.02 0.02 86 1026.4
20230129145021 41 0 0.0 5.0 0.01 0.02 0.02 85 1026.4
20230129144629 42 249 0.0 0.0 0.00 0.02 0.02 85 1028.0
20230129144537 41 0 0.0 5.0 0.01 0.02 0.02 85 1026.6
20230129144019 41 0 0.0 4.0 0.01 0.02 0.02 86 1026.6
20230129143639 41 314 0.0 3.0 0.00 0.02 0.02 88 1028.2
20230129143519 41 281 1.0 4.0 0.01 0.02 0.02 87 1026.6
20230129143027 41 289 1.0 2.0 0.02 0.02 0.02 88 1026.6
20230129142651 41 303 0.0 1.0 0.00 0.01 0.01 89 1028.0
20230129142520 41 304 0.0 2.0 0.01 0.01 0.01 88 1026.4
20230129142019 41 0 0.0 1.0 0.01 0.01 0.01 88 1026.3
20230129141705 41 332 0.0 0.0 0.00 0.01 0.01 88 1027.8
20230129141525 41 0 0.0 1.0 0.01 0.01 0.01 87 1026.1
20230129141022 41 307 0.0 1.0 0.01 0.01 0.01 88 1026.0
20230129140728 41 335 0.0 0.0 0.00 0.01 0.01 88 1027.4
20230129140523 41 0 0.0 1.0 0.01 0.01 0.01 87 1025.6
20230129140035 41 0 0.0 1.0 0.01 0.01 0.01 87 1025.7
20230129135657 41 210 0.0 0.0 0.00 0.01 0.01 88 1027.3
20230129135521 40 0 0.0 1.0 0.01 0.01 0.01 87 1025.5
20230129135021 40 0 0.0 0.0 0.01 0.01 0.01 87 1025.5
20230129134709 41 210 0.0 0.0 0.00 0.01 0.01 87 1027.0
20230129134529 40 0 0.0 1.0 0.01 0.01 0.01 86 1025.4
20230129134020 40 0 0.0 1.0 0.01 0.01 0.01 84 1025.2
20230129133705 41 99 0.0 0.0 0.00 0.01 0.01 82 1026.9
20230129133523 40 0 0.0 2.0 0.01 0.01 0.01 81 1025.2
20230129133023 41 0 0.0 2.0 0.00 0.00 0.00 76 1025.1
20230129132721 42 128 0.0 4.0 0.00 0.00 0.00 75 1026.8
20230129132521 41 118 0.0 3.0 0.00 0.00 0.00 75 1025.1
20230129132021 41 168 1.0 4.0 0.00 0.00 0.00 74 1025.0
20230129131713 42 182 1.0 4.0 0.00 0.00 0.00 74 1026.6
20230129131532 41 166 1.0 4.0 0.00 0.00 0.00 73 1024.8
20230129131023 41 178 1.0 3.0 0.00 0.00 0.00 74 1024.8
20230129130519 41 100 0.0 3.0 0.00 0.00 0.00 74 1024.6
20230129130024 41 178 0.0 3.0 0.00 0.00 0.00 74 1024.8
20230129125552 41 204 1.0 3.0 0.00 0.00 0.00 74 1026.5
20230129125520 41 179 1.0 4.0 0.00 0.00 0.00 74 1024.8
20230129125021 40 186 1.0 4.0 0.00 0.00 0.00 74 1024.8
20230129124549 41 217 1.0 4.0 0.00 0.00 0.00 75 1026.5
20230129124538 40 199 1.0 4.0 0.00 0.00 0.00 74 1024.8
20230129124020 40 186 1.0 4.0 0.00 0.00 0.00 74 1024.8
20230129123531 41 199 1.0 4.0 0.00 0.00 0.00 74 1026.6
20230129123520 40 189 2.0 6.0 0.00 0.00 0.00 74 1024.8
20230129123025 40 163 2.0 6.0 0.00 0.00 0.00 74 1024.8
20230129122521 40 174 1.0 6.0 0.00 0.00 0.00 75 1024.8
20230129122020 40 199 2.0 6.0 0.00 0.00 0.00 76 1024.6
20230129121538 39 204 2.0 4.0 0.00 0.00 0.00 76 1024.6
20230129121455 40 195 1.0 4.0 0.00 0.00 0.00 77 1026.4
20230129121021 39 173 2.0 4.0 0.00 0.00 0.00 77 1024.5
20230129120519 39 177 1.0 4.0 0.00 0.00 0.00 78 1024.3
20230129120034 39 171 1.0 3.0 0.00 0.00 0.00 78 1024.2
20230129115522 38 175 0.0 3.0 0.00 0.00 0.00 79 1024.2
20230129115311 39 174 0.0 2.0 0.00 0.00 0.00 80 1026.0
20230129115021 38 158 1.0 2.0 0.00 0.00 0.00 80 1024.3
20230129114529 38 0 1.0 3.0 0.00 0.00 0.00 79 1024.4
20230129114021 38 185 0.0 3.0 0.00 0.00 0.00 80 1024.6
20230129113521 38 188 1.0 3.0 0.00 0.00 0.00 81 1024.4
20230129113056 38 182 0.0 1.0 0.00 0.00 0.00 82 1026.3
20230129113029 38 174 1.0 3.0 0.00 0.00 0.00 82 1024.5
20230129112522 37 182 1.0 3.0 0.00 0.00 0.00 83 1024.5
20230129112100 37 191 0.0 1.0 0.00 0.00 0.00 84 1026.2
20230129112025 37 181 1.0 2.0 0.00 0.00 0.00 83 1024.4
20230129111529 36 183 0.0 2.0 0.00 0.00 0.00 84 1024.3
20230129111033 37 193 0.0 1.0 0.00 0.00 0.00 84 1026.2
20230129111020 36 0 0.0 2.0 0.00 0.00 0.00 84 1024.3
20230129110524 36 0 0.0 2.0 0.00 0.00 0.00 85 1024.3
20230129110052 36 196 0.0 0.0 0.00 0.00 0.00 85 1026.3
20230129110043 36 0 0.0 1.0 0.00 0.00 0.00 84 1024.4
20230129105521 36 0 0.0 2.0 0.00 0.00 0.00 84 1024.5
20230129105027 37 199 0.0 0.0 0.00 0.00 0.00 85 1026.3
20230129105023 36 0 0.0 2.0 0.00 0.00 0.00 84 1024.3
20230129104530 37 189 0.0 3.0 0.00 0.00 0.00 83 1024.5
20230129104030 37 199 0.0 2.0 0.00 0.00 0.00 84 1026.4
20230129104022 36 189 0.0 3.0 0.00 0.00 0.00 84 1024.4
20230129103521 36 192 1.0 3.0 0.00 0.00 0.00 85 1024.5
20230129103026 36 164 1.0 3.0 0.00 0.00 0.00 84 1024.4
20230129102522 36 183 1.0 3.0 0.00 0.00 0.00 83 1024.6
20230129102020 36 181 1.0 3.0 0.00 0.00 0.00 83 1024.6
20230129101912 37 191 1.0 2.0 0.00 0.00 0.00 84 1026.5
20230129101526 36 181 1.0 3.0 0.00 0.00 0.00 83 1024.6
20230129101022 36 166 1.0 3.0 0.00 0.00 0.00 82 1024.7
20230129100923 37 176 0.0 2.0 0.00 0.00 0.00 82 1026.6
20230129100526 36 183 1.0 4.0 0.00 0.00 0.00 83 1024.7
20230129100029 36 194 1.0 4.0 0.00 0.00 0.00 82 1024.8
20230129095907 37 193 1.0 4.0 0.00 0.00 0.00 83 1026.7
20230129095520 36 197 1.0 4.0 0.00 0.00 0.00 84 1024.7
20230129095025 35 166 2.0 4.0 0.00 0.00 0.00 84 1024.6
20230129094835 36 203 1.0 4.0 0.00 0.00 0.00 84 1026.6
20230129094532 35 168 1.0 3.0 0.00 0.00 0.00 82 1024.9
20230129094020 36 172 1.0 3.0 0.00 0.00 0.00 81 1024.7
20230129093815 37 180 1.0 4.0 0.00 0.00 0.00 81 1026.6
20230129093521 36 170 1.0 4.0 0.00 0.00 0.00 80 1024.7
20230129093026 37 187 2.0 4.0 0.00 0.00 0.00 80 1024.8
20230129092746 37 201 1.0 4.0 0.00 0.00 0.00 80 1026.7
20230129092519 37 157 1.0 4.0 0.00 0.00 0.00 79 1024.7
20230129092021 38 166 1.0 3.0 0.00 0.00 0.00 77 1024.8
20230129091737 38 170 1.0 4.0 0.00 0.00 0.00 78 1026.7
20230129091527 38 151 1.0 4.0 0.00 0.00 0.00 77 1024.8
20230129091026 38 185 1.0 4.0 0.00 0.00 0.00 77 1025.2
20230129090754 39 186 1.0 4.0 0.00 0.00 0.00 77 1027.0
20230129090520 38 186 2.0 4.0 0.00 0.00 0.00 76 1025.1
20230129090031 38 212 1.0 4.0 0.00 0.00 0.00 75 1025.0
20230129085732 39 189 1.0 3.0 0.00 0.00 0.00 75 1026.9
20230129085531 38 194 1.0 4.0 0.00 0.00 0.00 74 1024.9
20230129085021 39 189 2.0 4.0 0.00 0.00 0.00 74 1024.9
20230129084726 39 190 1.0 3.0 0.00 0.00 0.00 74 1026.9
20230129084524 39 179 2.0 4.0 0.00 0.00 0.00 74 1025.0
20230129084020 39 172 1.0 4.0 0.00 0.00 0.00 74 1025.0
20230129083728 39 201 1.0 6.0 0.00 0.00 0.00 75 1026.9
20230129083519 38 186 1.0 4.0 0.00 0.00 0.00 75 1024.9
20230129083029 38 168 2.0 7.0 0.00 0.00 0.00 75 1024.9
20230129082719 39 201 1.0 6.0 0.00 0.00 0.00 76 1027.0
20230129082522 38 185 1.0 7.0 0.00 0.00 0.00 75 1024.9
20230129082021 38 174 2.0 6.0 0.00 0.00 0.00 76 1025.0
20230129081727 38 178 2.0 7.0 0.00 0.00 0.00 76 1027.0
20230129081523 38 166 2.0 7.0 0.00 0.00 0.00 76 1025.0
20230129081021 37 171 2.0 7.0 0.00 0.00 0.00 78 1025.1
20230129080747 38 211 1.0 7.0 0.00 0.00 0.00 79 1027.2
20230129080522 37 185 1.0 8.0 0.00 0.00 0.00 78 1025.3
20230129080023 36 199 2.0 8.0 0.00 0.00 0.00 81 1025.2
20230129075521 36 192 2.0 4.0 0.00 0.00 0.00 80 1025.2
20230129075020 36 158 1.0 3.0 0.00 0.00 0.00 79 1025.2
20230129074612 37 190 0.0 4.0 0.00 0.00 0.00 78 1027.4
20230129074551 37 190 1.0 6.0 0.00 0.00 0.00 77 1025.3
20230129074021 38 190 1.0 6.0 0.00 0.00 0.00 75 1025.5
20230129073616 38 194 1.0 4.0 0.00 0.00 0.00 75 1027.5
20230129073524 38 182 2.0 6.0 0.00 0.00 0.00 74 1025.5
20230129073022 38 185 1.0 3.0 0.00 0.00 0.00 73 1025.6
20230129072521 38 174 1.0 3.0 0.00 0.00 0.00 71 1025.6
20230129072021 39 169 1.0 6.0 0.00 0.00 0.00 71 1025.7
20230129071524 39 186 1.0 6.0 0.00 0.00 0.00 71 1025.8
20230129071456 40 196 1.0 5.0 0.00 0.00 0.00 71 1027.8
20230129071020 39 185 1.0 6.0 0.00 0.00 0.00 70 1025.9
20230129070522 39 195 2.0 7.0 0.00 0.00 0.00 69 1025.9
20230129070451 40 191 2.0 4.0 0.00 0.00 0.00 70 1028.0
20230129070023 40 178 2.0 7.0 0.00 0.00 0.00 69 1025.9
20230129065525 40 187 2.0 6.0 0.00 0.00 0.00 68 1025.8
20230129065420 41 197 2.0 5.0 0.00 0.00 0.00 68 1027.9
20230129065106 40 176 3.0 6.0 0.00 0.00 0.00 68 1025.8
20230129065024 40 176 3.0 6.0 0.00 0.00 0.00 68 1025.8
20230129064721 40 0 2.0 4.0 0.00 0.00 0.00 67 1025.8
20230129064438 41 204 1.0 6.0 0.00 0.00 0.00 68 1027.9
20230129064021 40 192 2.0 7.0 0.00 0.00 0.00 67 1025.7
20230129063520 41 172 4.0 7.0 0.00 0.00 0.00 67 1025.9
20230129063459 41 201 2.0 6.0 0.00 0.00 0.00 68 1027.9
20230129063124 41 208 2.0 6.0 0.00 0.00 0.00 67 1025.9
20230129062522 41 193 2.0 4.0 0.00 0.00 0.00 67 1025.8
20230129062507 41 209 1.0 4.0 0.00 0.00 0.00 68 1027.9
20230129062019 41 172 1.0 4.0 0.00 0.00 0.00 67 1025.9
20230129061525 41 208 1.0 8.0 0.00 0.00 0.00 67 1026.0
20230129061457 41 204 1.0 6.0 0.00 0.00 0.00 68 1028.1
20230129061023 41 178 2.0 8.0 0.00 0.00 0.00 68 1025.9
20230129060520 40 151 3.0 8.0 0.00 0.00 0.00 68 1026.0
20230129060449 41 176 1.0 6.0 0.00 0.00 0.00 69 1028.1
20230129060024 40 180 2.0 4.0 0.00 0.00 0.00 68 1026.0
20230129055520 41 191 2.0 4.0 0.00 0.00 0.00 66 1026.1
20230129055441 41 184 0.0 4.0 0.00 0.00 0.00 66 1028.1
20230129055025 41 187 1.0 4.0 0.00 0.00 0.00 65 1026.0
20230129054607 42 169 1.0 6.0 0.00 0.00 0.00 65 1026.0
20230129054449 42 179 1.0 4.0 0.00 0.00 0.00 65 1028.2
20230129054021 42 181 2.0 6.0 0.00 0.00 0.00 65 1026.1
20230129053526 42 201 1.0 6.0 0.00 0.00 0.00 64 1026.1
20230129053029 42 192 2.0 6.0 0.00 0.00 0.00 64 1026.0
20230129052524 42 191 1.0 6.0 0.00 0.00 0.00 63 1026.1
20230129052407 43 216 1.0 5.0 0.00 0.00 0.00 64 1028.2
20230129052025 42 172 1.0 6.0 0.00 0.00 0.00 64 1026.1
20230129051538 42 197 1.0 5.0 0.00 0.00 0.00 65 1026.2
20230129051426 42 214 1.0 6.0 0.00 0.00 0.00 66 1028.2
20230129051025 41 202 2.0 7.0 0.00 0.00 0.00 68 1026.2
20230129050525 41 195 2.0 7.0 0.00 0.00 0.00 67 1026.2
20230129050414 42 182 1.0 6.0 0.00 0.00 0.00 67 1028.2
20230129050038 41 172 2.0 7.0 0.00 0.00 0.00 65 1026.3
20230129045523 41 195 1.0 3.0 0.00 0.00 0.00 66 1026.3
20230129045341 41 192 1.0 2.0 0.00 0.00 0.00 67 1028.3
20230129045023 41 193 2.0 3.0 0.00 0.00 0.00 66 1026.4
20230129044528 41 201 1.0 3.0 0.00 0.00 0.00 66 1026.6
20230129044346 41 210 0.0 2.0 0.00 0.00 0.00 66 1028.6
20230129044021 41 201 1.0 3.0 0.00 0.00 0.00 65 1026.6
20230129043521 42 189 0.0 3.0 0.00 0.00 0.00 62 1026.6
20230129043318 43 186 1.0 4.0 0.00 0.00 0.00 62 1028.5
20230129043024 43 176 1.0 3.0 0.00 0.00 0.00 62 1026.6
20230129042522 43 193 1.0 4.0 0.00 0.00 0.00 62 1026.7
20230129042334 43 211 1.0 4.0 0.00 0.00 0.00 62 1028.8
20230129042020 42 179 1.0 4.0 0.00 0.00 0.00 63 1026.9
20230129041526 42 191 2.0 4.0 0.00 0.00 0.00 65 1026.9
20230129041341 42 205 2.0 4.0 0.00 0.00 0.00 66 1028.9
20230129041020 41 211 2.0 6.0 0.00 0.00 0.00 66 1027.0
20230129040523 41 165 2.0 6.0 0.00 0.00 0.00 65 1026.9
20230129040402 42 180 2.0 5.0 0.00 0.00 0.00 65 1029.0
20230129040028 42 171 2.0 6.0 0.00 0.00 0.00 63 1027.0
20230129035522 42 181 2.0 6.0 0.00 0.00 0.00 63 1027.1
20230129035349 42 213 2.0 5.0 0.00 0.00 0.00 63 1029.0
20230129035019 42 178 2.0 6.0 0.00 0.00 0.00 63 1027.1
20230129034536 42 195 2.0 6.0 0.00 0.00 0.00 62 1027.1
20230129034356 43 199 1.0 4.0 0.00 0.00 0.00 63 1029.1
20230129034019 42 189 1.0 4.0 0.00 0.00 0.00 64 1027.1
20230129033519 41 181 2.0 4.0 0.00 0.00 0.00 65 1027.1
20230129033026 41 185 2.0 4.0 0.00 0.00 0.00 66 1027.0
20230129032520 40 156 1.0 5.0 0.00 0.00 0.00 68 1027.1
20230129032024 40 147 2.0 5.0 0.00 0.00 0.00 69 1027.2
20230129031523 40 161 2.0 6.0 0.00 0.00 0.00 69 1027.1
20230129031124 39 178 2.0 6.0 0.00 0.00 0.00 71 1027.1
20230129030520 39 164 2.0 7.0 0.00 0.00 0.00 69 1027.2
20230129030107 41 180 2.0 6.0 0.00 0.00 0.00 68 1029.3
20230129030028 40 176 2.0 7.0 0.00 0.00 0.00 67 1027.2
20230129025522 40 172 2.0 7.0 0.00 0.00 0.00 67 1027.2
20230129025058 40 177 1.0 6.0 0.00 0.00 0.00 69 1029.2
20230129025024 39 166 2.0 7.0 0.00 0.00 0.00 68 1027.1
20230129024527 39 181 1.0 6.0 0.00 0.00 0.00 70 1027.3
20230129024022 40 0 1.0 6.0 0.00 0.00 0.00 66 1027.2
20230129023523 40 196 2.0 6.0 0.00 0.00 0.00 66 1027.3
20230129023029 40 176 2.0 6.0 0.00 0.00 0.00 67 1027.3
20230129022924 40 194 1.0 6.0 0.00 0.00 0.00 68 1029.2
20230129022522 40 209 2.0 6.0 0.00 0.00 0.00 67 1027.1
20230129022023 40 169 2.0 7.0 0.00 0.00 0.00 68 1027.1
20230129021947 40 189 1.0 6.0 0.00 0.00 0.00 69 1029.1
20230129021530 40 178 2.0 7.0 0.00 0.00 0.00 69 1027.1
20230129021024 40 153 1.0 6.0 0.00 0.00 0.00 70 1027.2
20230129020938 40 170 1.0 5.0 0.00 0.00 0.00 71 1029.2
20230129020522 40 164 2.0 7.0 0.00 0.00 0.00 70 1027.1
20230129020029 40 159 3.0 7.0 0.00 0.00 0.00 70 1027.0
20230129015933 40 177 2.0 5.0 0.00 0.00 0.00 72 1029.1
20230129015523 39 139 2.0 4.0 0.00 0.00 0.00 73 1027.1
20230129015025 39 189 2.0 6.0 0.00 0.00 0.00 74 1027.1
20230129014951 39 180 1.0 5.0 0.00 0.00 0.00 76 1029.2
20230129014531 38 178 2.0 6.0 0.00 0.00 0.00 78 1027.1
20230129014022 37 154 2.0 6.0 0.00 0.00 0.00 79 1027.2
20230129014001 38 171 1.0 5.0 0.00 0.00 0.00 80 1029.3
20230129013520 38 162 1.0 3.0 0.00 0.00 0.00 79 1027.2
20230129013029 38 0 1.0 3.0 0.00 0.00 0.00 80 1027.0
20230129012927 38 190 0.0 2.0 0.00 0.00 0.00 80 1029.2
20230129012523 37 153 1.0 3.0 0.00 0.00 0.00 80 1027.0
20230129012021 37 170 0.0 3.0 0.00 0.00 0.00 80 1027.0
20230129011857 38 233 0.0 1.0 0.00 0.00 0.00 80 1029.1
20230129011535 37 243 0.0 1.0 0.00 0.00 0.00 79 1026.9
20230129011022 37 0 0.0 1.0 0.00 0.00 0.00 79 1027.0
20230129010847 38 253 0.0 0.0 0.00 0.00 0.00 79 1029.0
20230129010524 38 0 0.0 1.0 0.00 0.00 0.00 79 1026.8
20230129010034 38 0 0.0 1.0 0.00 0.00 0.00 78 1026.9
20230129005812 39 161 0.0 0.0 0.00 0.00 0.00 78 1028.9
20230129005519 38 151 0.0 4.0 0.00 0.00 0.00 77 1026.7
20230129005018 39 0 0.0 4.0 0.00 0.00 0.00 75 1026.7
20230129004818 40 161 0.0 6.0 0.00 0.00 0.00 74 1028.7
20230129004522 40 151 1.0 4.0 0.00 0.00 0.00 71 1026.7
20230129004020 40 157 1.0 7.0 0.00 0.00 0.00 72 1026.6
20230129003837 40 155 1.0 6.0 0.00 0.00 0.00 73 1028.7
20230129003518 40 165 1.0 7.0 0.00 0.00 0.00 73 1026.7
20230129003030 39 141 1.0 5.0 0.00 0.00 0.00 76 1026.8
20230129002522 40 172 0.0 2.0 0.00 0.00 0.00 76 1026.8
20230129002020 40 0 0.0 2.0 0.00 0.00 0.00 76 1026.7
20230129001627 41 133 0.0 1.0 0.00 0.00 0.00 75 1028.7
20230129001548 40 123 0.0 2.0 0.00 0.00 0.00 74 1026.6
20230129001020 41 123 1.0 2.0 0.00 0.00 0.00 73 1026.7
20230129000619 41 133 0.0 1.0 0.00 0.00 0.00 72 1028.8
20230129000518 41 0 0.0 1.0 0.00 0.00 0.00 71 1026.7
20230129000026 41 0 0.0 1.0 0.00 0.00 0.00 70 1026.6
20230128235519 41 0 0.0 1.0 0.00 0.00 0.00 67 1026.7
20230128235018 42 0 0.0 2.0 0.00 0.00 0.00 66 1026.6
20230128234522 42 0 0.0 2.0 0.00 0.00 0.00 66 1026.6
20230128234501 43 145 0.0 0.0 0.00 0.00 0.00 66 1028.6
20230128234018 43 133 0.0 2.0 0.00 0.00 0.00 64 1026.6
20230128233518 43 137 0.0 2.0 0.00 0.00 0.00 62 1026.5
20230128233506 44 147 0.0 1.0 0.00 0.00 0.00 62 1028.6
20230128233029 44 0 0.0 2.0 0.00 0.00 0.00 59 1026.5
20230128232521 45 127 0.0 2.0 0.00 0.00 0.00 58 1026.5
20230128232519 46 137 0.0 1.0 0.00 0.00 0.00 58 1028.5
20230128232019 46 127 0.0 2.0 0.00 0.00 0.00 57 1026.5
20230128231528 47 151 0.0 2.0 0.00 0.00 0.00 55 1026.5
20230128231017 47 151 1.0 2.0 0.00 0.00 0.00 53 1026.4
20230128230525 48 147 0.0 3.0 0.00 0.00 0.00 52 1026.4
20230128230513 49 157 0.0 2.0 0.00 0.00 0.00 53 1028.4
20230128230023 49 0 1.0 3.0 0.00 0.00 0.00 50 1026.3
20230128225528 50 153 0.0 2.0 0.00 0.00 0.00 49 1026.3
20230128225126 50 0 0.0 2.0 0.00 0.00 0.00 47 1026.2
20230128224538 51 166 1.0 2.0 0.00 0.00 0.00 45 1026.2
20230128224023 52 166 1.0 2.0 0.00 0.00 0.00 42 1026.2
20230128223530 53 187 1.0 6.0 0.00 0.00 0.00 42 1026.2
20230128223216 54 197 1.0 5.0 0.00 0.00 0.00 40 1028.2
20230128223030 54 187 2.0 6.0 0.00 0.00 0.00 40 1026.2
20230128222539 54 168 1.0 6.0 0.00 0.00 0.00 39 1026.1
20230128222214 55 188 2.0 7.0 0.00 0.00 0.00 40 1028.1
20230128222022 54 210 2.0 6.0 0.00 0.00 0.00 39 1026.0
20230128221531 55 207 3.0 8.0 0.00 0.00 0.00 39 1026.1
20230128221235 55 209 3.0 7.0 0.00 0.00 0.00 39 1028.0
20230128221022 55 201 3.0 11.0 0.00 0.00 0.00 39 1025.9
20230128220521 55 183 5.0 11.0 0.00 0.00 0.00 39 1025.8
20230128220205 56 167 3.0 8.0 0.00 0.00 0.00 38 1028.0
20230128220030 55 165 3.0 8.0 0.00 0.00 0.00 38 1026.0
20230128215520 55 183 4.0 9.0 0.00 0.00 0.00 38 1026.1
20230128215200 56 209 4.0 10.0 0.00 0.00 0.00 38 1028.0
20230128215022 56 177 4.0 9.0 0.00 0.00 0.00 37 1026.0
20230128214533 56 178 5.0 9.0 0.00 0.00 0.00 37 1026.0
20230128214209 56 197 5.0 10.0 0.00 0.00 0.00 38 1028.0
20230128214025 55 213 5.0 11.0 0.00 0.00 0.00 37 1026.0
20230128213520 55 181 7.0 11.0 0.00 0.00 0.00 37 1026.0
20230128213136 56 212 3.0 9.0 0.00 0.00 0.00 38 1028.0
20230128213031 56 216 5.0 10.0 0.00 0.00 0.00 38 1026.0
20230128212554 56 219 3.0 9.0 0.00 0.00 0.00 36 1025.8
20230128212042 56 192 4.0 9.0 0.00 0.00 0.00 38 1025.9
20230128211539 56 168 4.0 10.0 0.00 0.00 0.00 37 1025.9
20230128211119 56 177 5.0 10.0 0.00 0.00 0.00 36 1025.8
20230128210521 56 137 4.0 10.0 0.00 0.00 0.00 36 1025.7
20230128210034 56 168 4.0 10.0 0.00 0.00 0.00 37 1025.7
20230128205938 57 191 4.0 8.0 0.00 0.00 0.00 38 1027.8
20230128205520 57 194 3.0 10.0 0.00 0.00 0.00 36 1025.6
20230128205018 57 226 5.0 11.0 0.00 0.00 0.00 35 1025.8
20230128204908 58 222 4.0 10.0 0.00 0.00 0.00 36 1027.9
20230128204537 57 219 4.0 11.0 0.00 0.00 0.00 36 1025.7
20230128204025 57 182 6.0 11.0 0.00 0.00 0.00 36 1025.8
20230128203909 57 184 3.0 10.0 0.00 0.00 0.00 37 1027.8
20230128203524 57 251 4.0 10.0 0.00 0.00 0.00 35 1025.8
20230128203028 57 182 5.0 10.0 0.00 0.00 0.00 36 1025.7
20230128202911 58 234 4.0 9.0 0.00 0.00 0.00 37 1027.9
20230128202527 57 196 5.0 10.0 0.00 0.00 0.00 35 1025.7
20230128202026 57 206 6.0 10.0 0.00 0.00 0.00 36 1025.8
20230128201933 57 218 4.0 10.0 0.00 0.00 0.00 39 1027.9
20230128201617 57 226 4.0 11.0 0.00 0.00 0.00 36 1025.7
20230128201021 58 168 6.0 11.0 0.00 0.00 0.00 37 1025.9
20230128200950 58 166 4.0 12.0 0.00 0.00 0.00 37 1027.9
20230128200526 57 143 5.0 12.0 0.00 0.00 0.00 38 1025.7
20230128200237 57 191 5.0 12.0 0.00 0.00 0.00 37 1025.7
20230128195952 57 158 4.0 12.0 0.00 0.00 0.00 37 1027.9
20230128195521 57 148 6.0 12.0 0.00 0.00 0.00 38 1025.9
20230128195024 58 291 1.0 8.0 0.00 0.00 0.00 38 1025.8
20230128194933 58 309 2.0 9.0 0.00 0.00 0.00 36 1027.9
20230128194529 58 213 1.0 10.0 0.00 0.00 0.00 37 1025.9
20230128194022 57 195 4.0 10.0 0.00 0.00 0.00 36 1026.0
20230128193924 58 206 5.0 9.0 0.00 0.00 0.00 36 1028.0
20230128193521 57 156 7.0 10.0 0.00 0.00 0.00 38 1025.9
20230128193037 57 196 4.0 10.0 0.00 0.00 0.00 37 1025.9
20230128192930 57 207 3.0 9.0 0.00 0.00 0.00 36 1028.0
20230128192525 57 268 3.0 12.0 0.00 0.00 0.00 36 1025.9
20230128192022 57 158 4.0 12.0 0.00 0.00 0.00 36 1025.9
20230128191907 57 203 5.0 12.0 0.00 0.00 0.00 37 1028.2
20230128191527 57 197 6.0 12.0 0.00 0.00 0.00 37 1026.1